STARLINK-3375, 51114

Orbit data source: Space-Track

STARLINK-3375, 51114 is a payload satellite owned by SpaceX/Seattle (US) in LEO that was launched on Wed, 19 Jan 2022 UTC via an FALCON 9 launch vehicle from the Air Force Eastern Test Range (AFETR). Payload-class satellites include a variety of spacecraft equipped with specific instruments for various scientific and technological missions. These include communications satellites like Starlink; space stations such as the ISS; scientific satellites like the Hubble; Earth observation satellites from companies like Planet Labs, Umbra, and HawkEye 360; GPS; miniature CubeSats for education and research; and military/defense satellites.

Loading next visibility...
Identifier
51114, 2022-005L
Orbit
LEO
Country
Flag of USUS
Related business
Manufacturer
SpaceX/Seattle
Mission
Operational Commercial Communications
Bus & Motor
STARLINK, Unknown motor
Mass
297 kg wet, ~275 kg dry
Launch date (UTC)
2022-01-19 (4 years ago)
Launch vehicle
FALCON 9
Launch site
Air Force Eastern Test Range (AFETR)
Object type
Payload
Rocket body
Debris
Shape & HBR
Box + 1 Pan, 10.1 m
Radar Cross Section
13.562 m², Large (>1 m²)

Expand to show TLE details & history
Last TLE update: 2 days ago

TLE from 2 days ago
0 STARLINK-3375
1 51114U 22005L   26171.31227885  .00000359  00000-0  40664-4 0  9995
2 51114  53.1601 188.3163 0001193  68.0044 292.1074 15.08836289244371
Epoch: 2026-06-20T07:29Z
TLE epoch observation values (Epoch: 2026-06-20T07:29:40.892Z)
Latitude
-0.00004°
Longitude
167.36718°
Altitude
540.336 km
Speed
7.594 km/s
True Right ascension
12h 33m 15s
True Declination
0° 00' 00"
Sunlit
Object was in daylight at epoch
Visualization orbit readout
Latitude
Unknown
Longitude
Unknown
Altitude
Unknown
Speed
Unknown
Apparent Right ascension
Unknown
Apparent Declination
Unknown
Sunlit
N/A
Visualization observer readout
Local Sidereal Time
23:19:20
Azimuth
Unknown
Elevation
Unknown
Doppler factor
Unknown
Orbital elements
Apogee altitude
540.834 km
Perigee altitude
539.183 km
Semi-major axis
6,918.146 km
Eccentricity
0.00012
Inclination
53.1601°
RAAN
188.3163°
Arg. of periapsis
68.0044°
True anomaly
292.09473°
Mean anomaly
292.1074°
Eccentric anomaly
292.10107°
Mean motion
3.77189 °/min
Orbital period
95.44 mins
BSTAR
0.000040664
Loading maneuver chart data...
Computing Atmospheric mass density...
Loading historical data...
Loading historical data...
Loading historical data...
Loading historical data...
Loading historical data...
Loading historical data...
Loading historical data...

Documentation

Showing up to 5 results
|